Tracking 19286 objects as of 19-Nov-2018
HD Live streaming from Space Station
objects crossing your sky now

BUCCANEER RMM

Track BUCCANEER RMM now!
10-day predictions


NORAD ID: 43014
Int'l Code: 2017-073B
Perigee: 464.8 km
Apogee: 822.9 km
Inclination: 97.7 °
Period: 97.5 minutes
Semi major axis: 7014 km
RCS: Unknown
Launch date: November 18, 2017
Source: United States (US)
Launch site: AIR FORCE WESTERN TEST RANGE (AFWTR)
aabbcc
Your satellite tracking list
Your tracking list is empty




NASA's NSSDC Master Catalog

Two Line Element Set (TLE):
1 43014U 17073B   18322.83374190 +.00001133 +00000-0 +96926-4 0  9995
2 43014 097.7111 246.9770 0255232 129.0520 233.3707 14.77656899053941
Source of the keplerian elements: AFSPC